This demonstration page uses our WeatherBlox Daily Observations layout. Learn more.

Left ArrowRight Arrow

36.17497, -115.13722

Hourly Observations for February 21, 2020

Temp ( °F °C ) Dew Point ( °F °C ) Humidity (%) Winds ( mph kmh ) Pressure ( in mb ) Visibility ( mi km ) Precip ( " mm )
12:53 am 00:53 Clear 46 7.8 17 -8.3 31 31 Calm 30.24 1024 10 16.0934 0 0
1:53 am 01:53 Clear 46 7.8 16 -8.9 30 30 WNW 7 11 30.23 1024 10 16.0934 0 0
2:53 am 02:53 Clear 44 6.7 18 -7.8 35 35 Calm 30.22 1023 10 16.0934 0 0
3:53 am 03:53 Clear 43 6.1 17 -8.3 35 35 W 5 7 30.22 1023 10 16.0934 0 0
4:53 am 04:53 Clear 43 6.1 18 -7.8 37 37 NNW 6 9 30.23 1024 10 16.0934 0 0
5:53 am 05:53 Clear 43 6.1 18 -7.8 37 37 WNW 6 9 30.25 1025 10 16.0934 0 0
6:53 am 06:53 Sunny 43 6.1 18 -7.8 37 37 NW 3 6 30.26 1025 10 16.0934 0 0
7:53 am 07:53 Sunny 51 10.6 18 -7.8 27 27 Calm 30.27 1025 10 16.0934 0 0
8:53 am 08:53 Sunny 55 12.8 16 -8.9 21 21 SSE 5 7 30.28 1025 10 16.0934 0 0
9:53 am 09:53 Sunny 57 13.9 17 -8.3 21 21 SE 6 9 30.26 1025 10 16.0934 0 0
10:53 am 10:53 Sunny 61 16.1 14 -10 16 16 VRB 5 7 30.24 1024 10 16.0934 0 0
11:53 am 11:53 Sunny 63 17.2 12 -11.1 13 13 SE 6 9 30.21 1023 10 16.0934 0 0
12:53 pm 12:53 Sunny 66 18.9 12 -11.1 12 12 Calm 30.16 1021 10 16.0934 0 0
1:53 pm 13:53 Mostly Sunny 68 20 13 -10.6 12 12 SSE 7 11 30.13 1020 10 16.0934 0 0
2:53 pm 14:53 Sunny 70 21.1 13 -10.6 11 11 VRB 5 7 30.11 1020 10 16.0934 0 0
3:53 pm 15:53 Sunny 70 21.1 14 -10 11 11 VRB 6 9 30.1 1019 10 16.0934 0 0
4:53 pm 16:53 Partly Cloudy 68 20 15 -9.4 13 13 ESE 5 7 30.08 1019 10 16.0934 0 0
5:53 pm 17:53 Clear 65 18.3 15 -9.4 14 14 ESE 5 7 30.09 1019 10 16.0934 0 0
6:53 pm 18:53 Mostly Cloudy 64 17.8 16 -8.9 15 15 Calm 30.1 1019 10 16.0934 0 0
7:53 pm 19:53 Mostly Clear 61 16.1 17 -8.3 18 18 N 3 6 30.1 1019 10 16.0934 0 0
8:53 pm 20:53 Mostly Clear 58 14.4 18 -7.8 21 21 W 3 6 30.11 1020 10 16.0934 0 0
9:53 pm 21:53 Clear 56 13.3 20 -6.7 24 24 WNW 7 11 30.1 1019 10 16.0934 0 0
10:53 pm 22:53 Mostly Clear 54 12.2 20 -6.7 26 26 NW 6 9 30.09 1019 10 16.0934 0 0
11:53 pm 23:53 Clear 54 12.2 20 -6.7 26 26 W 7 11 30.06 1018 10 16.0934 0 0

Powered by AerisWeather